| time (UTC) | temp F | wind direction | speed MPH | gust MPH | rain 1hr in | rain 24hr in | rain mn in | humidity % | barometer mb |
| 20260506153204 | 64 | 206 | 12.0 | 20.0 | 0.03 | 0.03 | 0.03 | 82 | 1009.5 |
| 20260506152704 | 64 | 253 | 13.0 | 18.0 | 0.03 | 0.03 | 0.03 | 81 | 1009.6 |
| 20260506151704 | 65 | 216 | 11.0 | 20.0 | 0.03 | 0.03 | 0.03 | 81 | 1009.5 |
| 20260506151204 | 65 | 244 | 12.0 | 16.0 | 0.02 | 0.02 | 0.02 | 80 | 1009.5 |
| 20260506150704 | 65 | 208 | 12.0 | 21.0 | 0.02 | 0.02 | 0.02 | 80 | 1009.6 |
| 20260506150204 | 65 | 215 | 13.0 | 18.0 | 0.02 | 0.02 | 0.02 | 79 | 1009.6 |
| 20260506145204 | 66 | 325 | 14.0 | 18.0 | 0.01 | 0.01 | 0.01 | 78 | 1009.7 |
| 20260506144704 | 66 | 234 | 13.0 | 16.0 | 0.00 | 0.00 | 0.00 | 78 | 1009.6 |
| 20260506144205 | 66 | 218 | 12.0 | 20.0 | 0.00 | 0.00 | 0.00 | 77 | 1009.5 |
| 20260506143704 | 66 | 6 | 13.0 | 17.0 | 0.00 | 0.00 | 0.00 | 77 | 1009.6 |
| 20260506143204 | 67 | 332 | 13.0 | 17.0 | 0.00 | 0.00 | 0.00 | 77 | 1009.6 |
| 20260506142704 | 67 | 220 | 12.0 | 18.0 | 0.00 | 0.00 | 0.00 | 75 | 1009.7 |
| 20260506142204 | 67 | 271 | 14.0 | 21.0 | 0.00 | 0.00 | 0.00 | 74 | 1009.6 |
| 20260506141704 | 67 | 233 | 12.0 | 17.0 | 0.00 | 0.00 | 0.00 | 72 | 1009.5 |
| 20260506140704 | 67 | 225 | 13.0 | 17.0 | 0.00 | 0.00 | 0.00 | 71 | 1009.6 |
| 20260506140204 | 67 | 257 | 14.0 | 21.0 | 0.00 | 0.00 | 0.00 | 71 | 1009.6 |
| 20260506135704 | 67 | 228 | 15.0 | 20.0 | 0.00 | 0.00 | 0.00 | 71 | 1009.6 |
| 20260506134704 | 67 | 261 | 13.0 | 18.0 | 0.00 | 0.00 | 0.00 | 71 | 1009.5 |
| 20260506133704 | 67 | 303 | 13.0 | 21.0 | 0.00 | 0.00 | 0.00 | 72 | 1009.5 |
| 20260506133204 | 67 | 207 | 16.0 | 25.0 | 0.00 | 0.00 | 0.00 | 72 | 1009.5 |
| 20260506132704 | 67 | 223 | 13.0 | 20.0 | 0.00 | 0.00 | 0.00 | 72 | 1009.4 |
| 20260506132204 | 67 | 184 | 13.0 | 21.0 | 0.00 | 0.00 | 0.00 | 71 | 1009.4 |
| 20260506131704 | 67 | 208 | 13.0 | 21.0 | 0.00 | 0.00 | 0.00 | 71 | 1009.5 |
| 20260506131204 | 67 | 211 | 13.0 | 23.0 | 0.00 | 0.00 | 0.00 | 71 | 1009.6 |
| 20260506130704 | 67 | 195 | 13.0 | 20.0 | 0.00 | 0.00 | 0.00 | 71 | 1009.5 |
| 20260506130203 | 66 | 207 | 13.0 | 18.0 | 0.00 | 0.00 | 0.00 | 71 | 1009.5 |
| 20260506125703 | 66 | 326 | 13.0 | 21.0 | 0.00 | 0.00 | 0.00 | 72 | 1009.5 |
| 20260506125204 | 66 | 261 | 12.0 | 26.0 | 0.00 | 0.00 | 0.00 | 72 | 1009.5 |
| 20260506124704 | 66 | 233 | 11.0 | 17.0 | 0.00 | 0.00 | 0.00 | 72 | 1009.5 |
| 20260506124203 | 66 | 242 | 14.0 | 20.0 | 0.00 | 0.00 | 0.00 | 71 | 1009.5 |
| 20260506123204 | 66 | 212 | 14.0 | 20.0 | 0.00 | 0.00 | 0.00 | 71 | 1009.6 |
| 20260506122704 | 66 | 195 | 14.0 | 20.0 | 0.00 | 0.00 | 0.00 | 72 | 1009.7 |
| 20260506122204 | 66 | 210 | 16.0 | 21.0 | 0.00 | 0.00 | 0.00 | 71 | 1009.7 |
| 20260506121704 | 66 | 204 | 14.0 | 21.0 | 0.00 | 0.00 | 0.00 | 72 | 1009.7 |
| 20260506121204 | 66 | 217 | 13.0 | 23.0 | 0.00 | 0.00 | 0.00 | 71 | 1009.8 |
| 20260506120704 | 66 | 8 | 13.0 | 23.0 | 0.00 | 0.00 | 0.00 | 71 | 1009.7 |
| 20260506120204 | 66 | 171 | 14.0 | 23.0 | 0.00 | 0.00 | 0.00 | 71 | 1009.7 |
| 20260506115704 | 66 | 236 | 14.0 | 24.0 | 0.00 | 0.00 | 0.00 | 72 | 1009.8 |
| 20260506115203 | 66 | 223 | 14.0 | 24.0 | 0.00 | 0.00 | 0.00 | 71 | 1009.8 |
| 20260506114703 | 67 | 3 | 16.0 | 23.0 | 0.00 | 0.00 | 0.00 | 71 | 1009.6 |
| 20260506114204 | 67 | 235 | 14.0 | 22.0 | 0.00 | 0.00 | 0.00 | 71 | 1009.6 |
| 20260506113703 | 66 | 353 | 12.0 | 22.0 | 0.00 | 0.00 | 0.00 | 71 | 1009.6 |
| 20260506113204 | 66 | 174 | 14.0 | 22.0 | 0.00 | 0.00 | 0.00 | 72 | 1009.4 |
| 20260506112704 | 66 | 3 | 13.0 | 23.0 | 0.00 | 0.00 | 0.00 | 72 | 1009.4 |
| 20260506112203 | 66 | 186 | 12.0 | 21.0 | 0.00 | 0.00 | 0.00 | 73 | 1009.5 |
| 20260506111704 | 65 | 159 | 14.0 | 20.0 | 0.00 | 0.00 | 0.00 | 74 | 1009.5 |
| 20260506111204 | 65 | 14 | 13.0 | 21.0 | 0.00 | 0.00 | 0.00 | 75 | 1009.4 |
| 20260506110704 | 65 | 198 | 14.0 | 20.0 | 0.00 | 0.00 | 0.00 | 74 | 1009.4 |
| 20260506110204 | 65 | 217 | 12.0 | 15.0 | 0.00 | 0.00 | 0.00 | 75 | 1009.3 |
| 20260506105704 | 65 | 212 | 12.0 | 17.0 | 0.00 | 0.00 | 0.00 | 75 | 1009.3 |
| 20260506105204 | 65 | 176 | 12.0 | 17.0 | 0.00 | 0.00 | 0.00 | 74 | 1009.3 |
| 20260506104204 | 65 | 343 | 12.0 | 18.0 | 0.00 | 0.00 | 0.00 | 75 | 1009.2 |
| 20260506103204 | 65 | 216 | 14.0 | 22.0 | 0.00 | 0.00 | 0.00 | 76 | 1009.4 |
| 20260506102704 | 65 | 251 | 13.0 | 21.0 | 0.00 | 0.00 | 0.00 | 76 | 1009.3 |
| 20260506102203 | 64 | 186 | 12.0 | 20.0 | 0.00 | 0.00 | 0.00 | 76 | 1009.1 |
| 20260506101704 | 64 | 173 | 12.0 | 18.0 | 0.00 | 0.00 | 0.00 | 76 | 1009.1 |
| 20260506101204 | 64 | 185 | 13.0 | 20.0 | 0.00 | 0.00 | 0.00 | 76 | 1009.2 |
| 20260506100204 | 65 | 180 | 14.0 | 26.0 | 0.00 | 0.00 | 0.00 | 76 | 1009.4 |
| 20260506095706 | 65 | 196 | 14.0 | 22.0 | 0.00 | 0.00 | 0.00 | 76 | 1009.4 |
| 20260506095205 | 65 | 216 | 13.0 | 20.0 | 0.00 | 0.00 | 0.00 | 76 | 1009.4 |
| 20260506094205 | 65 | 199 | 14.0 | 21.0 | 0.00 | 0.00 | 0.00 | 76 | 1009.3 |
| 20260506093705 | 65 | 191 | 15.0 | 26.0 | 0.00 | 0.00 | 0.00 | 76 | 1009.5 |
| 20260506093206 | 65 | 192 | 14.0 | 22.0 | 0.00 | 0.00 | 0.00 | 76 | 1009.3 |
| 20260506092706 | 65 | 212 | 14.0 | 22.0 | 0.00 | 0.00 | 0.00 | 76 | 1009.3 |
| 20260506092205 | 65 | 200 | 15.0 | 23.0 | 0.00 | 0.00 | 0.00 | 76 | 1009.3 |
| 20260506091705 | 65 | 221 | 14.0 | 22.0 | 0.00 | 0.00 | 0.00 | 76 | 1009.4 |
| 20260506091205 | 65 | 195 | 14.0 | 22.0 | 0.00 | 0.00 | 0.00 | 76 | 1009.4 |
| 20260506090705 | 65 | 190 | 13.0 | 22.0 | 0.00 | 0.00 | 0.00 | 76 | 1009.3 |
| 20260506090205 | 65 | 201 | 14.0 | 24.0 | 0.00 | 0.00 | 0.00 | 76 | 1009.3 |
| 20260506085706 | 65 | 346 | 14.0 | 23.0 | 0.00 | 0.00 | 0.00 | 76 | 1009.3 |
| 20260506085206 | 65 | 212 | 12.0 | 18.0 | 0.00 | 0.00 | 0.00 | 76 | 1009.3 |
| 20260506084705 | 65 | 194 | 13.0 | 20.0 | 0.00 | 0.00 | 0.00 | 75 | 1009.4 |
| 20260506083706 | 65 | 201 | 14.0 | 21.0 | 0.00 | 0.00 | 0.00 | 75 | 1009.3 |
| 20260506083206 | 65 | 203 | 13.0 | 21.0 | 0.00 | 0.00 | 0.00 | 76 | 1009.3 |
| 20260506082706 | 65 | 186 | 14.0 | 20.0 | 0.00 | 0.00 | 0.00 | 75 | 1009.3 |
| 20260506081705 | 65 | 254 | 15.0 | 23.0 | 0.00 | 0.00 | 0.00 | 76 | 1009.2 |
| 20260506081205 | 65 | 201 | 13.0 | 23.0 | 0.00 | 0.00 | 0.00 | 75 | 1009.2 |
| 20260506080706 | 65 | 207 | 13.0 | 20.0 | 0.00 | 0.00 | 0.00 | 75 | 1009.3 |
| 20260506072705 | 66 | 219 | 14.0 | 23.0 | 0.00 | 0.00 | 0.00 | 75 | 1009.6 |
| 20260506072206 | 66 | 200 | 14.0 | 24.0 | 0.00 | 0.00 | 0.00 | 75 | 1009.6 |
| 20260506071705 | 66 | 195 | 14.0 | 23.0 | 0.00 | 0.00 | 0.00 | 75 | 1009.6 |
| 20260506071206 | 66 | 200 | 15.0 | 21.0 | 0.00 | 0.00 | 0.00 | 75 | 1009.6 |
| 20260506070706 | 66 | 204 | 16.0 | 26.0 | 0.00 | 0.00 | 0.00 | 74 | 1009.7 |
| 20260506070206 | 66 | 203 | 15.0 | 23.0 | 0.00 | 0.00 | 0.00 | 74 | 1009.6 |
| 20260506062206 | 67 | 180 | 13.0 | 23.0 | 0.00 | 0.00 | 0.00 | 73 | 1009.7 |
| 20260506061706 | 67 | 206 | 15.0 | 26.0 | 0.00 | 0.00 | 0.00 | 73 | 1009.7 |
| 20260506061205 | 67 | 195 | 15.0 | 28.0 | 0.00 | 0.00 | 0.00 | 73 | 1009.7 |
| 20260506060706 | 67 | 201 | 16.0 | 23.0 | 0.00 | 0.00 | 0.00 | 73 | 1009.7 |
| 20260506060206 | 67 | 209 | 14.0 | 24.0 | 0.00 | 0.00 | 0.00 | 73 | 1009.7 |
| 20260506051205 | 68 | 193 | 17.0 | 26.0 | 0.00 | 0.00 | 0.00 | 71 | 1010.2 |
| 20260506050706 | 68 | 202 | 14.0 | 30.0 | 0.00 | 0.00 | 0.00 | 71 | 1010.1 |
| 20260506050206 | 68 | 201 | 14.0 | 26.0 | 0.00 | 0.00 | 0.00 | 71 | 1010.1 |
| 20260506044706 | 69 | 209 | 13.0 | 21.0 | 0.00 | 0.00 | 0.00 | 70 | 1010.2 |
| 20260506044205 | 68 | 192 | 17.0 | 23.0 | 0.00 | 0.00 | 0.00 | 70 | 1010.2 |
| 20260506043705 | 68 | 212 | 14.0 | 22.0 | 0.00 | 0.00 | 0.00 | 70 | 1010.2 |
| 20260506043205 | 68 | 205 | 14.0 | 20.0 | 0.00 | 0.00 | 0.00 | 71 | 1010.1 |
| 20260506042705 | 68 | 211 | 14.0 | 25.0 | 0.00 | 0.00 | 0.00 | 71 | 1010.2 |
| 20260506042205 | 68 | 207 | 14.0 | 21.0 | 0.00 | 0.00 | 0.00 | 72 | 1010.2 |
| 20260506041705 | 68 | 212 | 12.0 | 20.0 | 0.00 | 0.00 | 0.00 | 71 | 1010.1 |
| 20260506040705 | 68 | 189 | 12.0 | 20.0 | 0.00 | 0.00 | 0.00 | 71 | 1010.2 |
| 20260506040205 | 69 | 209 | 12.0 | 16.0 | 0.00 | 0.00 | 0.00 | 71 | 1010.2 |
| 20260506035706 | 69 | 191 | 12.0 | 22.0 | 0.00 | 0.00 | 0.00 | 69 | 1010.1 |
| 20260506035205 | 69 | 205 | 14.0 | 24.0 | 0.00 | 0.00 | 0.00 | 69 | 1010.0 |
| 20260506034705 | 69 | 358 | 14.0 | 20.0 | 0.00 | 0.00 | 0.00 | 69 | 1010.0 |
| 20260506034205 | 69 | 231 | 13.0 | 20.0 | 0.00 | 0.00 | 0.00 | 68 | 1010.0 |
| 20260506033705 | 69 | 13 | 12.0 | 20.0 | 0.00 | 0.00 | 0.00 | 67 | 1009.9 |
| 20260506033205 | 69 | 11 | 13.0 | 20.0 | 0.00 | 0.00 | 0.00 | 67 | 1009.8 |
| 20260506032705 | 69 | 333 | 13.0 | 25.0 | 0.00 | 0.00 | 0.00 | 66 | 1009.8 |
| 20260506032205 | 69 | 341 | 11.0 | 22.0 | 0.00 | 0.00 | 0.00 | 66 | 1009.9 |
| 20260506031706 | 69 | 340 | 12.0 | 18.0 | 0.00 | 0.00 | 0.00 | 66 | 1009.9 |
| 20260506031206 | 69 | 9 | 13.0 | 22.0 | 0.00 | 0.00 | 0.00 | 65 | 1009.9 |
| 20260506030706 | 69 | 59 | 12.0 | 20.0 | 0.00 | 0.00 | 0.00 | 66 | 1009.9 |
| 20260506030205 | 69 | 4 | 12.0 | 16.0 | 0.00 | 0.00 | 0.00 | 65 | 1010.0 |
| 20260506025205 | 69 | 23 | 13.0 | 20.0 | 0.00 | 0.00 | 0.00 | 65 | 1010.1 |
| 20260506024705 | 69 | 5 | 12.0 | 17.0 | 0.00 | 0.00 | 0.00 | 64 | 1010.0 |
| 20260506024205 | 69 | 95 | 13.0 | 22.0 | 0.00 | 0.00 | 0.00 | 64 | 1010.1 |
| 20260506023706 | 69 | 1 | 12.0 | 20.0 | 0.00 | 0.00 | 0.00 | 64 | 1010.1 |
| 20260506022705 | 69 | 70 | 11.0 | 21.0 | 0.00 | 0.00 | 0.00 | 63 | 1010.0 |
| 20260506022205 | 69 | 340 | 10.0 | 17.0 | 0.00 | 0.00 | 0.00 | 64 | 1010.0 |
| 20260506021705 | 70 | 248 | 12.0 | 21.0 | 0.00 | 0.00 | 0.00 | 63 | 1010.1 |
| 20260506021205 | 70 | 344 | 10.0 | 18.0 | 0.00 | 0.00 | 0.00 | 64 | 1010.0 |
| 20260506020705 | 70 | 354 | 12.0 | 20.0 | 0.00 | 0.00 | 0.00 | 63 | 1010.0 |
| 20260506020205 | 70 | 345 | 11.0 | 20.0 | 0.00 | 0.00 | 0.00 | 63 | 1009.9 |
| 20260506015705 | 70 | 21 | 12.0 | 20.0 | 0.00 | 0.00 | 0.00 | 63 | 1009.9 |
| 20260506015205 | 70 | 168 | 12.0 | 17.0 | 0.00 | 0.00 | 0.00 | 62 | 1009.9 |
| 20260506014705 | 70 | 186 | 13.0 | 17.0 | 0.00 | 0.00 | 0.00 | 63 | 1009.9 |
| 20260506013706 | 70 | 0 | 12.0 | 16.0 | 0.00 | 0.00 | 0.00 | 62 | 1009.8 |
| 20260506013206 | 70 | 178 | 12.0 | 20.0 | 0.00 | 0.00 | 0.00 | 63 | 1009.8 |
| 20260506012205 | 70 | 4 | 11.0 | 18.0 | 0.00 | 0.00 | 0.00 | 62 | 1009.8 |
| 20260506011705 | 70 | 7 | 12.0 | 18.0 | 0.00 | 0.00 | 0.00 | 62 | 1009.6 |
| 20260506011205 | 71 | 311 | 12.0 | 18.0 | 0.00 | 0.00 | 0.00 | 61 | 1009.6 |
| 20260506010705 | 71 | 330 | 10.0 | 15.0 | 0.00 | 0.00 | 0.00 | 61 | 1009.5 |
| 20260506010205 | 71 | 336 | 10.0 | 16.0 | 0.00 | 0.00 | 0.00 | 61 | 1009.4 |
| 20260506005705 | 71 | 179 | 10.0 | 20.0 | 0.00 | 0.00 | 0.00 | 60 | 1009.4 |
| 20260506004706 | 71 | 12 | 12.0 | 20.0 | 0.00 | 0.00 | 0.00 | 59 | 1009.2 |
| 20260506003706 | 72 | 354 | 10.0 | 20.0 | 0.00 | 0.00 | 0.00 | 58 | 1009.0 |
| 20260506003206 | 72 | 204 | 10.0 | 18.0 | 0.00 | 0.00 | 0.00 | 58 | 1008.9 |
| 20260506002205 | 72 | 8 | 11.0 | 20.0 | 0.00 | 0.00 | 0.00 | 57 | 1008.8 |
| 20260506001205 | 73 | 337 | 10.0 | 18.0 | 0.00 | 0.00 | 0.00 | 56 | 1008.9 |
| 20260506000706 | 73 | 225 | 10.0 | 17.0 | 0.00 | 0.00 | 0.00 | 55 | 1008.8 |
| 20260506000206 | 73 | 188 | 9.0 | 15.0 | 0.00 | 0.00 | 0.00 | 56 | 1008.7 |
| 20260505235705 | 73 | 336 | 10.0 | 16.0 | 0.00 | 0.00 | 0.00 | 56 | 1008.8 |
| 20260505235206 | 73 | 181 | 10.0 | 14.0 | 0.00 | 0.00 | 0.00 | 55 | 1008.6 |
| 20260505234705 | 74 | 212 | 12.0 | 18.0 | 0.00 | 0.00 | 0.00 | 54 | 1008.6 |
| 20260505234206 | 74 | 287 | 10.0 | 15.0 | 0.00 | 0.00 | 0.00 | 54 | 1008.6 |
| 20260505233705 | 74 | 168 | 7.0 | 20.0 | 0.00 | 0.00 | 0.00 | 55 | 1008.5 |
| 20260505233205 | 74 | 142 | 6.0 | 16.0 | 0.00 | 0.00 | 0.00 | 53 | 1008.4 |
| 20260505232706 | 74 | 181 | 9.0 | 16.0 | 0.00 | 0.00 | 0.00 | 54 | 1008.5 |
| 20260505232205 | 74 | 159 | 9.0 | 15.0 | 0.00 | 0.00 | 0.00 | 54 | 1008.5 |
| 20260505231705 | 74 | 155 | 10.0 | 15.0 | 0.00 | 0.00 | 0.00 | 54 | 1008.5 |
| 20260505231205 | 74 | 158 | 7.0 | 14.0 | 0.00 | 0.00 | 0.00 | 53 | 1008.5 |
| 20260505230705 | 75 | 173 | 7.0 | 12.0 | 0.00 | 0.00 | 0.00 | 53 | 1008.5 |
| 20260505230205 | 75 | 222 | 7.0 | 14.0 | 0.00 | 0.00 | 0.00 | 53 | 1008.5 |
| 20260505224705 | 75 | 203 | 8.0 | 15.0 | 0.00 | 0.00 | 0.00 | 53 | 1008.4 |
| 20260505224205 | 75 | 178 | 9.0 | 14.0 | 0.00 | 0.00 | 0.00 | 51 | 1008.5 |
| 20260505223705 | 75 | 24 | 9.0 | 17.0 | 0.00 | 0.00 | 0.00 | 52 | 1008.5 |
| 20260505223205 | 75 | 165 | 9.0 | 17.0 | 0.00 | 0.00 | 0.00 | 51 | 1008.4 |
| 20260505222705 | 75 | 186 | 10.0 | 17.0 | 0.00 | 0.00 | 0.00 | 52 | 1008.4 |
| 20260505222205 | 76 | 3 | 10.0 | 21.0 | 0.00 | 0.00 | 0.00 | 51 | 1008.5 |
| 20260505221705 | 76 | 38 | 8.0 | 14.0 | 0.00 | 0.00 | 0.00 | 52 | 1008.6 |
| 20260505221205 | 76 | 358 | 12.0 | 20.0 | 0.00 | 0.00 | 0.00 | 50 | 1008.5 |
| 20260505220705 | 76 | 248 | 10.0 | 20.0 | 0.00 | 0.00 | 0.00 | 50 | 1008.5 |
| 20260505220205 | 76 | 170 | 10.0 | 15.0 | 0.00 | 0.00 | 0.00 | 49 | 1008.4 |
| 20260505215706 | 77 | 300 | 13.0 | 17.0 | 0.00 | 0.00 | 0.00 | 49 | 1008.4 |
| 20260505215205 | 77 | 247 | 10.0 | 14.0 | 0.00 | 0.00 | 0.00 | 49 | 1008.5 |
| 20260505214704 | 77 | 103 | 9.0 | 16.0 | 0.00 | 0.00 | 0.00 | 49 | 1008.5 |
| 20260505214205 | 77 | 198 | 10.0 | 18.0 | 0.00 | 0.00 | 0.00 | 49 | 1008.5 |
| 20260505213705 | 78 | 253 | 12.0 | 17.0 | 0.00 | 0.00 | 0.00 | 49 | 1008.4 |
| 20260505212704 | 78 | 305 | 12.0 | 18.0 | 0.00 | 0.00 | 0.00 | 47 | 1008.3 |
| 20260505212205 | 79 | 355 | 12.0 | 17.0 | 0.00 | 0.00 | 0.00 | 48 | 1008.3 |
| 20260505211705 | 79 | 11 | 11.0 | 22.0 | 0.00 | 0.00 | 0.00 | 47 | 1008.3 |
| 20260505211205 | 80 | 4 | 12.0 | 18.0 | 0.00 | 0.00 | 0.00 | 46 | 1008.2 |
| 20260505210705 | 80 | 196 | 13.0 | 21.0 | 0.00 | 0.00 | 0.00 | 45 | 1008.3 |
| 20260505210205 | 80 | 177 | 14.0 | 20.0 | 0.00 | 0.00 | 0.00 | 44 | 1008.2 |
| 20260505205705 | 80 | 253 | 14.0 | 24.0 | 0.00 | 0.00 | 0.00 | 46 | 1008.2 |
| 20260505205205 | 80 | 189 | 18.0 | 30.0 | 0.00 | 0.00 | 0.00 | 44 | 1008.2 |
| 20260505204705 | 80 | 185 | 16.0 | 22.0 | 0.00 | 0.00 | 0.00 | 46 | 1008.2 |
| 20260505204205 | 80 | 210 | 16.0 | 23.0 | 0.00 | 0.00 | 0.00 | 46 | 1008.3 |
| 20260505203705 | 80 | 274 | 17.0 | 23.0 | 0.00 | 0.00 | 0.00 | 45 | 1008.3 |
| 20260505203205 | 80 | 200 | 15.0 | 26.0 | 0.00 | 0.00 | 0.00 | 44 | 1008.2 |
| 20260505202205 | 80 | 0 | 14.0 | 20.0 | 0.00 | 0.00 | 0.00 | 49 | 1008.5 |
| 20260505201705 | 80 | 331 | 14.0 | 21.0 | 0.00 | 0.00 | 0.00 | 51 | 1008.5 |
| 20260505201205 | 80 | 350 | 14.0 | 25.0 | 0.00 | 0.00 | 0.00 | 47 | 1008.6 |
| 20260505200705 | 80 | 238 | 14.0 | 21.0 | 0.00 | 0.00 | 0.00 | 45 | 1008.6 |
| 20260505200205 | 80 | 353 | 16.0 | 23.0 | 0.00 | 0.00 | 0.00 | 50 | 1008.7 |
| 20260505195205 | 81 | 293 | 14.0 | 20.0 | 0.00 | 0.00 | 0.00 | 46 | 1008.7 |
| 20260505194705 | 81 | 9 | 16.0 | 28.0 | 0.00 | 0.00 | 0.00 | 46 | 1008.8 |
| 20260505194205 | 81 | 351 | 14.0 | 20.0 | 0.00 | 0.00 | 0.00 | 48 | 1008.8 |
| 20260505193705 | 80 | 275 | 14.0 | 20.0 | 0.00 | 0.00 | 0.00 | 49 | 1009.0 |
| 20260505193205 | 80 | 224 | 13.0 | 24.0 | 0.00 | 0.00 | 0.00 | 48 | 1009.1 |
| 20260505192704 | 80 | 215 | 12.0 | 22.0 | 0.00 | 0.00 | 0.00 | 47 | 1009.2 |
| 20260505192204 | 80 | 222 | 14.0 | 22.0 | 0.00 | 0.00 | 0.00 | 50 | 1009.3 |
| 20260505191705 | 80 | 4 | 13.0 | 20.0 | 0.00 | 0.00 | 0.00 | 47 | 1009.4 |
| 20260505191206 | 80 | 205 | 13.0 | 24.0 | 0.00 | 0.00 | 0.00 | 50 | 1009.4 |
| 20260505190205 | 80 | 156 | 12.0 | 21.0 | 0.00 | 0.00 | 0.00 | 48 | 1009.6 |
| 20260505185705 | 80 | 355 | 13.0 | 23.0 | 0.00 | 0.00 | 0.00 | 47 | 1009.6 |
| 20260505185205 | 80 | 32 | 14.0 | 20.0 | 0.00 | 0.00 | 0.00 | 49 | 1009.8 |
| 20260505184205 | 80 | 166 | 14.0 | 20.0 | 0.00 | 0.00 | 0.00 | 50 | 1009.9 |
| 20260505183705 | 80 | 204 | 11.0 | 20.0 | 0.00 | 0.00 | 0.00 | 50 | 1009.9 |
| 20260505183205 | 80 | 210 | 12.0 | 20.0 | 0.00 | 0.00 | 0.00 | 47 | 1010.0 |
| 20260505182705 | 80 | 310 | 14.0 | 21.0 | 0.00 | 0.00 | 0.00 | 48 | 1010.0 |
| 20260505182205 | 80 | 335 | 14.0 | 21.0 | 0.00 | 0.00 | 0.00 | 48 | 1010.0 |
| 20260505181705 | 80 | 243 | 15.0 | 22.0 | 0.00 | 0.00 | 0.00 | 49 | 1010.0 |
| 20260505180205 | 79 | 18 | 14.0 | 20.0 | 0.00 | 0.00 | 0.00 | 47 | 1010.4 |
| 20260505175704 | 79 | 187 | 14.0 | 21.0 | 0.00 | 0.00 | 0.00 | 48 | 1010.4 |
| 20260505175205 | 79 | 207 | 14.0 | 20.0 | 0.00 | 0.00 | 0.00 | 47 | 1010.4 |
| 20260505174205 | 79 | 195 | 13.0 | 20.0 | 0.00 | 0.00 | 0.00 | 50 | 1010.4 |
| 20260505173705 | 78 | 243 | 16.0 | 24.0 | 0.00 | 0.00 | 0.00 | 49 | 1010.4 |
| 20260505173205 | 78 | 215 | 14.0 | 20.0 | 0.00 | 0.00 | 0.00 | 50 | 1010.4 |
| 20260505172705 | 78 | 304 | 15.0 | 23.0 | 0.00 | 0.00 | 0.00 | 51 | 1010.5 |
| 20260505172205 | 78 | 17 | 13.0 | 20.0 | 0.00 | 0.00 | 0.00 | 50 | 1010.5 |
| 20260505170705 | 77 | 197 | 14.0 | 22.0 | 0.00 | 0.00 | 0.00 | 53 | 1010.8 |
| 20260505170205 | 77 | 36 | 13.0 | 20.0 | 0.00 | 0.00 | 0.00 | 51 | 1010.9 |
| 20260505165705 | 77 | 172 | 12.0 | 17.0 | 0.00 | 0.00 | 0.00 | 51 | 1011.0 |
| 20260505164205 | 77 | 314 | 13.0 | 20.0 | 0.00 | 0.00 | 0.00 | 50 | 1011.1 |
| 20260505163205 | 76 | 191 | 12.0 | 18.0 | 0.00 | 0.00 | 0.00 | 55 | 1011.3 |
| 20260505162205 | 75 | 224 | 10.0 | 16.0 | 0.00 | 0.00 | 0.00 | 54 | 1011.3 |
| 20260505161705 | 75 | 187 | 13.0 | 20.0 | 0.00 | 0.00 | 0.00 | 55 | 1011.4 |
| 20260505161205 | 75 | 195 | 12.0 | 18.0 | 0.00 | 0.00 | 0.00 | 53 | 1011.5 |
| 20260505160705 | 75 | 186 | 10.0 | 17.0 | 0.00 | 0.00 | 0.00 | 54 | 1011.5 |